DW9608 Weather Reports


time (UTC)temp
C
wind
direction
speed
KPH
gust
KPH
rain 1hr
cm
rain 24hr
cm
rain mn
cm
humidity
%
barometer
mb
20260504050749 8 135 3.2 3.2 0.00 0.00 0.00 71 1013.7
20260504045738 -17 0.0 0.0 0.00 0.00 0.00 1013.8
20260504044648 8 0.0 0.0 0.00 0.00 0.00 72 1013.9
20260504043624 8 135 1.6 3.2 0.00 0.00 0.00 72 1013.9
20260504042611 8 0.0 0.0 0.00 0.00 0.00 71 1014.1
20260504041527 9 1.6 3.2 0.00 0.00 0.00 69 1014.2
20260504040519 10 0.0 0.0 0.00 0.00 0.00 68 1014.3
20260504035416 10 0.0 0.0 0.00 0.00 0.00 69 1014.3
20260504034226 10 0.0 0.0 0.00 0.00 0.00 68 1014.5
20260504033201 10 0.0 0.0 0.00 0.00 0.00 69 1014.6
20260504032132 10 0.0 0.0 0.00 0.00 0.00 68 1014.6
20260504031055 10 0.0 0.0 0.00 0.00 0.00 69 1014.8
20260504030030 10 0.0 0.0 0.00 0.00 0.00 69 1014.8
20260504024954 10 0.0 0.0 0.00 0.00 0.00 69 1014.8
20260504023917 10 0.0 0.0 0.00 0.00 0.00 68 1015.0
20260504022848 10 0.0 0.0 0.00 0.00 0.00 68 1015.1
20260504021849 -17 0.0 0.0 0.00 0.00 0.00 1015.3
20260504020820 10 0.0 1.6 0.00 0.00 0.00 66 1015.3
20260504015723 10 158 0.0 1.6 0.00 0.00 0.00 65 1015.3
20260504014648 10 225 1.6 4.8 0.00 0.00 0.00 62 1015.1
20260504013631 10 135 3.2 4.8 0.00 0.00 0.00 57 1015.0
20260504012555 -17 0.0 0.0 0.00 0.00 0.00 1014.6
20260504011533 10 0.0 3.2 0.00 0.00 0.00 54 1014.4
20260504010456 11 0.0 0.0 0.00 0.00 0.00 52 1014.4
20260504005420 11 135 3.2 6.4 0.00 0.00 0.00 51 1014.4
20260504004400 11 0.0 0.0 0.00 0.00 0.00 51 1014.4
20260504003318 12 0.0 0.0 0.00 0.00 0.00 48 1014.3
20260504002300 12 158 3.2 4.8 0.00 0.00 0.00 48 1014.3
20260504001242 13 158 3.2 4.8 0.00 0.00 0.00 47 1014.2
20260504000213 13 212 3.2 6.4 0.00 0.00 0.00 47 1014.3
20260503235130 14 135 3.2 4.8 0.00 0.00 0.00 45 1014.2
20260503234048 15 135 1.6 3.2 0.00 0.00 0.00 43 1014.4
20260503233100 15 113 4.8 8.0 0.00 0.00 0.00 41 1014.4
20260503231955 15 190 6.4 11.3 0.00 0.00 0.00 43 1014.5
20260503230919 15 158 1.6 3.2 0.00 0.00 0.00 42 1014.5
20260503225910 15 158 3.2 3.2 0.00 0.00 0.00 45 1014.5
20260503224831 15 125 4.8 9.7 0.00 0.00 0.00 45 1014.5
20260503223751 15 99 3.2 8.0 0.00 0.00 0.00 44 1014.6
20260503222720 15 135 1.6 3.2 0.00 0.00 0.00 45 1014.8
20260503221655 15 113 1.6 3.2 0.00 0.00 0.00 45 1014.8
20260503220618 15 135 3.2 3.2 0.00 0.00 0.00 44 1014.8
20260503215600 15 113 3.2 6.4 0.00 0.00 0.00 42 1014.8
20260503214530 15 135 1.6 3.2 0.00 0.00 0.00 46 1014.6
20260503213501 15 135 1.6 3.2 0.00 0.00 0.00 45 1014.8
20260503212417 15 124 4.8 6.4 0.00 0.00 0.00 43 1014.8
20260503211402 15 158 3.2 4.8 0.00 0.00 0.00 47 1014.9
20260503210331 15 113 3.2 4.8 0.00 0.00 0.00 46 1014.8
20260503205258 16 135 1.6 3.2 0.00 0.00 0.00 44 1014.8
20260503204215 16 135 3.2 3.2 0.00 0.00 0.00 39 1014.9
20260503203211 15 113 6.4 14.5 0.00 0.00 0.00 42 1014.9
20260503202122 17 123 3.2 4.8 0.00 0.00 0.00 43 1014.9
20260503201047 16 113 3.2 4.8 0.00 0.00 0.00 43 1015.3
20260503200023 16 128 3.2 3.2 0.00 0.00 0.00 45 1015.5
20260503195013 16 113 6.4 8.0 0.00 0.00 0.00 44 1015.5
20260503193933 15 158 4.8 4.8 0.00 0.00 0.00 42 1015.8
20260503192855 16 158 3.2 4.8 0.00 0.00 0.00 43 1016.0
20260503191820 16 135 6.4 8.0 0.00 0.00 0.00 44 1016.0
20260503190748 16 113 1.6 3.2 0.00 0.00 0.00 40 1016.1
20260503185726 16 189 4.8 8.0 0.00 0.00 0.00 45 1016.2
20260503184654 16 158 6.4 8.0 0.00 0.00 0.00 42 1016.4
20260503183617 16 158 3.2 4.8 0.00 0.00 0.00 43 1016.7
20260503182620 17 135 4.8 8.0 0.00 0.00 0.00 43 1016.7
20260503181516 16 113 3.2 4.8 0.00 0.00 0.00 47 1016.8
20260503180607 16 227 4.8 6.4 0.00 0.00 0.00 39 1017.0
20260503175421 16 113 3.2 4.8 0.00 0.00 0.00 45 1017.1
20260503174353 16 260 4.8 8.0 0.00 0.00 0.00 43 1017.1
20260503173333 16 113 3.2 3.2 0.00 0.00 0.00 44 1017.2
20260503172249 16 158 3.2 3.2 0.00 0.00 0.00 49 1017.5
20260503171225 16 113 4.8 6.4 0.00 0.00 0.00 50 1017.5
20260503170150 15 195 3.2 4.8 0.00 0.00 0.00 44 1017.7
20260503150616 13 158 3.2 3.2 0.00 0.00 0.00 50 1018.5
20260503131056 10 158 1.6 1.6 0.00 0.03 0.00 52 1019.1
20260503110449 0 0.0 0.0 0.00 0.13 0.00 91 1018.9
20260503100157 0 0.0 0.0 0.00 0.13 0.00 91 1018.5
20260503080619 0 0.0 0.0 0.00 0.41 0.00 90 1018.7
20260503072420 0 0.0 0.0 0.00 0.41 0.00 90 1018.7
20260503071401 0 0.0 0.0 0.00 0.41 0.00 89 1018.7
20260503070317 0 0.0 0.0 0.00 0.41 0.00 89 1018.6